User: anonymous   Login
Location: Albany
(35.0000°S, 118.0000°E)
Time: 21:05:09
(UTC-04:00)
Language:

JAS-1B - Orbit

View from above orbital plane
View from above orbital plane
View from above satellite
View from above satellite

Ground track
Ground track

The orbit data is extracted from the following two-line orbital elements,

1 20480U 90013C   16176.83725995 -.00000034  00000-0 -12089-4 0  9999
2 20480  99.0220  11.6349 0540965 120.9037 313.3191 12.83411588235881
Epoch (UTC): 24 June 2016 20:05:39
Eccentricity: 0.0540965
inclination: 99.0220°
perigee height: 911 km
apogee height: 1744 km
right ascension of ascending node: 11.6349°
argument of perigee: 120.9037°
revolutions per day: 12.83411588
mean anomaly at epoch: 313.3191°
orbit number at epoch: 23588

The dashed part of the orbit path shows where the satellite is in the earth's shadow,  

DLR